Location: Croix
(50.3841°N, 2.2794°E)
Time: 22:44:09
(UTC+00:00)

Daily predictions for brighter satellites

Satellite Brightness Start Highest point End
(mag) Time Altitude Azimuth Time Altitude Azimuth Time Altitude Azimuth
MOS 1-B 4.5 17:49:25 10° SE 17:55:06 58° ENE 18:00:48 10° N
Cosmos 1733 3.1 17:51:53 10° S 17:55:34 60° E 17:59:16 10° NNE
MINOTAUR 4 R/B 3.9 17:55:39 10° NNE 17:59:08 73° ESE 18:02:36 10° S
Cosmos 540 Rocket 4.4 17:55:43 10° NNW 18:00:42 53° WSW 18:05:38 10° S
Cosmos 1766 3.9 17:58:29 10° SSE 18:02:00 32° E 18:05:33 10° NNE
Cosmos 1674 Rocket 3.6 17:57:53 10° N 18:02:15 60° ENE 18:06:38 10° SSE
Meteor 2-10 4.2 17:58:01 10° S 18:03:31 58° E 18:08:51 10° NNE
ATLAS 2AS CENTAUR R/B 4.2 17:59:26 10° WNW 18:05:57 30° N 18:12:09 10° NE
YAOGAN 1 2.8 18:03:01 10° SE 18:07:11 49° ENE 18:11:21 10° N
Cosmos 968 Rocket 4.3 18:04:05 10° SSE 18:08:31 28° E 18:12:57 10° NE
Okean O Rocket 1.9 18:06:53 10° SE 18:11:02 45° ENE 18:15:15 10° N
Cosmos 2084 3.8 18:08:37 10° WSW 18:12:22 56° NW 18:16:10 10° NE
Lacrosse 4 Rocket 3.1 18:11:29 10° SE 18:13:13 12° ESE 18:13:56 12° E
SKYMED 2 3.6 18:09:06 10° NNE 18:13:29 87° ESE 18:17:50 10° SSW
Meteor 2-5 Rocket 4.2 18:09:14 10° N 18:14:26 39° ENE 18:19:36 10° SE
Nadezhda 4 Rocket 4.2 18:09:55 10° SSE 18:15:59 51° E 18:22:03 10° NNE
Cosmos 2285 Rocket 4.0 18:14:30 10° NNW 18:20:53 74° ENE 18:27:16 10° SSE
PSLV R/B 4.0 18:19:39 10° S 18:23:19 67° WSW 18:26:58 10° NNW
Cosmos 1726 2.0 18:20:27 10° S 18:24:04 73° E 18:27:44 10° NNE
USA 186 3.3 18:22:41 16° E 18:24:09 20° ENE 18:26:43 10° NNE
Cosmos 2322 Rocket 3.2 18:19:49 10° SSE 18:24:21 25° ESE 18:28:53 10° NE
Cosmos 1470 3.6 18:25:35 10° SSE 18:28:50 27° E 18:32:06 10° NNE
Cosmos 1378 Rocket 3.7 18:24:27 10° NNW 18:28:50 77° W 18:33:09 10° S
CZ-4B R/B 3.2 18:24:09 10° SSE 18:29:33 89° ENE 18:35:07 10° NNW
Cosmos 1975 Rocket 3.9 18:25:59 10° N 18:29:55 30° ENE 18:33:08 13° SE
Cosmos 1980 Rocket 2.5 18:24:27 10° SW 18:30:05 73° WNW 18:35:44 10° NNE
ARGOS Delta rocket 3.9 18:25:27 10° NNE 18:30:45 74° E 18:35:45 10° S
DMSP B5D2-2 4.4 18:26:12 10° N 18:31:29 71° WNW 18:36:43 10° SSW
Cosmos 2292 Rocket 3.8 18:34:10 10° SSE 18:38:56 46° E 18:42:39 10° NNE
Meteor 2-14 Rocket 4.4 18:34:46 10° S 18:40:50 89° W 18:46:57 10° N
Cosmos 1733 Rocket 4.2 18:38:50 10° SSW 18:43:08 48° WNW 18:47:28 10° N
USA 215 3.3 18:37:36 10° ENE 18:44:12 83° NNW 18:50:44 10° WSW
COBE Rocket 4.3 18:43:01 10° S 18:47:49 64° W 18:52:31 10° NNW
Cosmos 1844 Rocket 2.9 18:43:32 10° NNW 18:49:08 54° NE 18:52:58 20° SE
Cosmos 2278 3.8 18:47:47 10° SSW 18:53:29 83° WNW 18:59:13 10° NNE
SL-16 R/B 2.3 18:48:49 10° S 18:54:18 54° ESE 18:59:50 10° NE
Cosmos 1570 Rocket 4.1 18:49:11 10° NNW 18:54:28 79° WSW 18:59:41 10° SSE
Landsat 5 4.1 18:51:04 10° NNE 18:55:15 36° E 18:59:20 10° SSE
Cosmos 1092 Rocket 4.0 18:51:18 10° S 18:57:26 59° E 19:03:35 10° NNE
DMSP B5D1-3 4.4 18:55:32 10° NNE 19:00:41 81° ESE 19:05:49 10° SSW
COSMO-SKYMED 1 4.4 18:57:27 10° N 19:01:23 34° WNW 19:05:17 10° SW
Resurs 01 Rocket 2.9 19:01:19 22° ENE 19:01:25 22° ENE 19:04:50 10° N
SJ-6B 2.8 19:02:07 32° SE 19:03:33 53° ENE 19:07:17 10° N
Meteor 2-21 Rocket 4.4 18:57:29 10° S 19:03:33 85° WNW 19:09:39 10° N
Cosmos 2278 Rocket 3.9 19:00:00 10° N 19:03:47 18° NNE 19:05:41 15° ENE
Cosmos 1437 Rocket 2.6 19:02:40 10° SSW 19:06:25 85° WNW 19:10:11 10° NNE
Gbstr 26 Del rocket 4.5 18:59:04 10° WSW 19:06:44 85° SSE 19:12:39 21° ENE
H-2A R/B 3.5 19:07:11 25° NE 19:07:11 25° NE 19:09:59 10° N
Cosmos 2263 Rocket 4.0 19:03:02 10° NW 19:08:00 31° WSW 19:12:56 10° SSW
Meteor 1-24 Rocket 3.5 19:04:34 10° NNW 19:09:55 88° E 19:15:18 10° S
Resurs 1-3 3.8 19:11:26 37° ESE 19:12:42 49° ENE 19:16:57 10° N
SL-4 R/B 3.8 19:11:21 10° W 19:15:14 29° SW 19:17:52 17° SSE
Cosmos 921 Rocket 4.5 19:12:09 10° N 19:15:35 23° NE 19:15:35 23° NE
MetOp-A 4.2 19:17:19 32° NE 19:17:19 32° NE 19:20:33 10° N
Cosmos 2084 Rocket 3.6 19:14:38 10° NW 19:18:25 60° SW 19:19:51 35° SSE
USA 267 4.5 19:15:08 10° SSE 19:21:04 36° SW 19:27:02 10° WNW
Okean-O 2.5 19:20:29 34° SSE 19:22:22 75° ENE 19:26:49 10° N
Cosmos 1844 3.6 19:18:06 10° NNW 19:23:43 78° ENE 19:26:12 34° SE
CZ-4 R/B 2.8 19:19:50 10° S 19:23:47 41° W 19:27:46 10° NNW
Cosmos 1486 Rocket 4.2 19:18:42 10° S 19:23:47 48° ESE 19:28:55 10° NNE
OBJECT-B 1.5 19:24:56 40° NW 19:24:56 40° NW 19:26:51 10° NNW
IGS 5A 3.3 19:24:37 36° SSE 19:26:16 88° ENE 19:30:26 10° NNW
DNEPR-1 R/B 4.0 19:23:09 10° SSW 19:27:45 54° ESE 19:30:36 27° ENE
Meteor 1-22 Rocket 4.2 19:23:25 10° SSW 19:28:51 83° WNW 19:34:34 10° N
S3M 4.3 19:23:02 10° N 19:28:57 42° ENE 19:30:10 38° E
Cosmos 773 Rocket 4.3 19:25:03 10° NNW 19:30:10 47° ENE 19:31:00 43° E
Cosmos 1300 Rocket 3.4 19:30:15 48° SSE 19:31:14 65° E 19:35:35 10° NNE
CSL-04 Debris 4.2 19:28:02 15° S 19:32:34 77° WSW 19:38:00 10° NNW
Cosmos 1627 Rocket 4.4 19:30:25 10° S 19:36:32 85° WNW 19:42:43 10° N
USA 81 4.2 19:33:14 10° N 19:38:32 73° W 19:43:22 12° S
Cosmos 2360 Rocket 2.1 19:33:19 10° S 19:38:50 57° ESE 19:44:22 10° NE
Cosmos 1782 Rocket 4.0 19:35:21 10° SSW 19:39:39 62° WNW 19:44:01 10° N
Cosmos 1025 Rocket 3.5 19:38:21 10° NNW 19:42:37 58° W 19:44:51 26° SSW
Cosmos 158 Rocket 4.3 19:40:27 10° NNW 19:44:48 42° NE 19:44:48 42° NE
Okean O Rocket 3.9 19:44:06 10° SW 19:47:35 23° W 19:51:07 10° NW
Cosmos 1417 Rocket 4.3 19:43:24 10° N 19:49:31 68° ENE 19:51:03 50° SE
Cosmos 968 Rocket 4.4 19:44:57 10° SW 19:50:03 50° WNW 19:55:10 10° NNE
Lacrosse 4 Rocket 1.7 19:47:02 10° SW 19:50:17 56° SW 19:50:17 56° SW
Cosmos 2026 Rocket 4.2 19:47:07 10° SSW 19:53:07 67° WNW 19:59:13 10° N
USA 186 3.5 19:55:51 30° WSW 19:56:16 31° W 19:59:20 10° NNW
CSL-04 Rocket 4.3 19:55:05 21° S 19:58:35 54° W 20:03:55 10° NNW
ATLAS 2AS CENTAUR R/B 3.9 19:52:28 10° NW 19:59:00 33° NNE 20:01:35 26° NE
MOS 1 4.1 20:01:33 68° ESE 20:02:09 74° ENE 20:07:50 10° NNW
Cosmos 1553 Rocket 4.1 19:56:57 10° NNW 20:03:19 77° W 20:06:33 31° S
Landsat 7 4.2 20:04:06 50° SSW 20:05:02 61° WSW 20:09:44 10° NNW
deb Chang Zheng 4 3.9 20:05:56 59° NW 20:05:56 59° NW 20:09:25 10° NNW
Cosmos 1536 Rocket 4.3 20:01:36 10° N 20:04:43 45° N 20:04:43 45° N
SPOT 1/Viking Rocket 3.4 20:07:54 79° NE 20:07:54 79° NE 20:12:55 10° NNW
Cosmos 2322 Rocket 2.5 20:02:15 10° SW 20:07:55 66° WNW 20:13:39 10° NNE
NOSS 3-4 (A) 3.8 20:04:00 10° NW 20:10:44 68° NE 20:12:04 57° E
NOSS 3-4 (C) 3.8 20:04:07 10° NW 20:10:51 68° NE 20:12:10 57° E
Ariane Rocket 3.5 20:16:26 49° NNE 20:16:26 49° NNE 20:20:23 10° N
NOSS 3-3 (A) 4.2 20:15:55 10° SW 20:30:26 - NE 20:20:03 52° SSW
NOSS 3-3 (C) 4.2 20:16:01 10° SW 20:30:31 - NE 20:19:58 48° SSW
Aureole 1 Rocket 3.9 20:18:38 10° SSW 20:25:58 88° ESE 20:31:41 10° NNE
USA 215 3.8 20:24:15 33° NE 20:26:55 52° N 20:33:13 10° W
USA 281 3.7 20:27:40 44° NE 20:27:40 44° NE 20:33:42 10° NNW
Meteor 1-16 Rocket 4.3 20:30:32 73° N 20:30:32 73° N 20:35:53 10° NNE
Cosmos 1844 Rocket 4.2 20:27:51 10° NW 20:32:46 31° WSW 20:34:40 25° SW
Resurs 01 Rocket 2.9 20:38:52 38° NW 20:38:52 38° NW 20:41:57 10° NNW
Cosmos 2315 Rocket 4.1 20:32:13 10° N 20:37:56 70° NNE 20:37:56 70° NNE
SL-16 R/B 3.7 20:33:34 10° WSW 20:38:41 34° NW 20:43:51 10° NNE
Terra 3.8 20:42:42 20° NNE 20:42:42 20° NNE 20:44:24 10° N
Cosmos 1943 Rocket 3.8 20:35:38 10° NNW 20:38:59 23° NNE 20:38:59 23° NNE
Cosmos 2278 Rocket 3.0 20:43:26 10° NNW 20:47:32 45° N 20:47:32 45° N
Gbstr 26 Del rocket 4.4 20:46:32 10° W 20:54:34 81° N 20:55:06 77° NE
Cosmos 2369 Rocket 4.3 20:55:38 10° N 20:58:48 17° NNE 20:58:48 17° NNE
Cosmos 2266 Rocket 4.5 21:11:31 58° WNW 21:11:31 58° WNW 21:17:29 10° N
Cosmos 2333 Rocket 4.1 21:18:31 21° NNE 21:18:31 21° NNE 21:20:26 10° NNE
Cosmos 2360 Rocket 3.7 21:18:07 10° WSW 21:23:09 32° NW 21:28:13 10° NNE
ATLAS 2AS CENTAUR R/B 3.5 21:43:57 10° NW 21:49:00 47° NNW 21:49:00 47° NNW
USA 215 4.3 22:11:37 39° NW 22:11:37 39° NW 22:15:46 10° WNW
USA 281 4.5 22:14:33 34° NW 22:14:33 34° NW 22:18:23 10° NW
Cosmos 1943 Rocket 4.5 22:18:58 10° NNW 22:20:29 19° NNW 22:20:29 19° NNW
